Regional Weather Roundup
Issued by NWS

Home | Current Version | Previous Version | Text Only | Print | Product List | Glossary On
Versions: 1 2 3 4 5 6 7 8 9 10 11 12 13 14 15 16 17 18 19 20 21 22 23 24 25 26 27 28 29 30 31 32 33 34 35 36 37 38 39 40 41 42 43 44 45 46 47 48 49 50
663
ASUS44 KLIX 020201
RWRLA
LOUISIANA WEATHER ROUNDUP
NATIONAL WEATHER SERVICE NEW ORLEANS LA
900 PM CDT MON SEP 01 2014

NOTE: "FAIR" INDICATES FEW OR NO CLOUDS BELOW 12,000 FEET WITH NO
      SIGNIFICANT WEATHER AND/OR OBSTRUCTIONS TO VISIBILITY.
      SKY/WX - SKY CONDITION AND SIGNIFICANT WEATHER.
      TMP - AIR TEMPERATURE.    DP   - DEWPOINT TEMPERATURE.
      RH  - RELATIVE HUMIDITY.  PRES - PRESSURE.
      HX  - HEAT INDEX.         WCI  - WIND CHILL INDEX.

*  THESE STATIONS ARE NOT NWS OR FAA STATIONS AND ARE NOT UNDER
   NWS QUALITY CONTROL.

LAZ040-048-061>063-065-066-069-020300-
SOUTHEAST LOUISIANA

CITY           SKY/WX    TMP DP  RH WIND       PRES   REMARKS
N.O. AUDUBON     N/A     83  79  88 MISG        N/A
N.O. INTL ARPT CLOUDY    82  76  81 SE3       30.04R
N.O. LAKEFRONT CLOUDY    80  76  87 SE10      30.05R
N.O. DOWNTOWN* FAIR      82  73  74 SE5       30.05R
SLIDELL        CLOUDY    78  75  90 CALM      30.05R
BATON ROUGE    CLOUDY    79  74  84 SE8       30.03R
BOOTHVILLE     MOCLDY    82  77  84 SE5       30.05R
BELLE CHASSE   CLOUDY    81  76  84 E3        30.04R THUNDER
BOGALUSA*        N/A     78  74  87 CALM      30.06R
GALLIANO*      NOT AVBL
NEW ROADS*     FAIR      79  77  92 E6        30.02R
GONZALES*        N/A     80  80 100 CALM      30.03R
HAMMOND*       NOT AVBL
HOUMA*         MOCLDY    80  74  82 CALM      30.03R
PORT FOURCHON* PTCLDY    86  75  70 S7        30.05R HX  95

$$

LAZ041-044-053-054-020300-
SOUTHWEST LOUISIANA

CITY           SKY/WX    TMP DP  RH WIND       PRES   REMARKS
LAKE CHARLES   MOCLDY    81  78  91 SE5       29.98R
LAFAYETTE      MOCLDY    79  75  87 CALM      30.01R
PATTERSON        N/A     79  75  89 CALM      30.05R
SALT POINT       N/A     84  79  85 CALM      30.01R HX  96
NEW IBERIA     MOCLDY    80  77  90 SE3       30.02R
CHENAULT AIRPK CLEAR     81  75  83 SE6       30.00R

$$

LAZ027-028-020300-
CENTRAL LOUISIANA

CITY           SKY/WX    TMP DP  RH WIND       PRES   REMARKS
FORT POLK      PTCLDY    78  76  93 SE8       30.00R THUNDER
ALEXANDRIA INT MOCLDY    79  74  84 SE10      29.97R
ALEXANDRIA     CLOUDY    79  75  87 S5        30.00R

$$

LAZ001-002-020300-
NORTHWEST LOUISIANA

CITY           SKY/WX    TMP DP  RH WIND       PRES   REMARKS
SHREVEPORT     PTCLDY    83  74  74 S12       29.93R
BARKSDALE AFB  CLEAR     79  74  87 SE8       29.94S
DTN SHREVEPORT CLEAR     82  74  76 SE9       29.93S

$$

LAZ014-016-020300-
NORTHEAST LOUISIANA

CITY           SKY/WX    TMP DP  RH WIND       PRES   REMARKS
MONROE         CLOUDY    81  74  79 SE5       29.99R
TALLULAH       MOCLDY    78  72  81 S7        29.99S

$$




USA.gov is the U.S. government's official web portal to all federal, state and local government web resources and services.